,,Stat6,,Stat2,,Stat8,,Stat9,,Stat10,,Wind1,,Wind1,
time,status,PA1M_AVG,status,PR1M_SUM,status,RH1M_AVG,status,SR1M_AVG,status,TA1M_AVG,status,W1dAve1m,status,W1sAve1m,
2009-05-09, 00:00:00,VALID,916.963,VALID,0,VALID,99.5997,VALID,-0.0509425,VALID,20.6017,VALID,306,VALID,0,
2009-05-09, 00:01:00,VALID,916.923,VALID,0,VALID,99.6556,VALID,-0.0679233,VALID,20.6284,VALID,306,VALID,0,
2009-05-09, 00:02:00,VALID,916.897,VALID,0,VALID,99.4891,VALID,-0.0509425,VALID,20.6249,VALID,306,VALID,0,
2009-05-09, 00:03:00,VALID,916.845,VALID,0,VALID,99.2691,VALID,-0.0679233,VALID,20.5832,VALID,326,VALID,0,
2009-05-09, 00:04:00,VALID,916.78,VALID,0,VALID,99.4535,VALID,-0.0849042,VALID,20.5575,VALID,17,VALID,0,
2009-05-09, 00:05:00,VALID,916.729,VALID,0,VALID,99.6506,VALID,-0.0849042,VALID,20.5413,VALID,24,VALID,0,
2009-05-09, 00:06:00,VALID,916.669,VALID,0,VALID,99.8464,VALID,-0.101885,VALID,20.5086,VALID,27,VALID,0,
2009-05-09, 00:07:00,VALID,916.631,VALID,0,VALID,99.9952,VALID,-0.0849042,VALID,20.5218,VALID,30,VALID,0.0509673,
2009-05-09, 00:08:00,VALID,916.584,VALID,0,VALID,100,VALID,-0.0509425,VALID,20.5411,VALID,25,VALID,0.19401,
2009-05-09, 00:09:00,VALID,916.557,VALID,0,VALID,100,VALID,-0.0169808,VALID,20.5635,VALID,18,VALID,0.00319602,
2009-05-09, 00:10:00,VALID,916.514,VALID,0,VALID,100,VALID,-0.0169808,VALID,20.5768,VALID,19,VALID,0,
2009-05-09, 00:11:00,VALID,916.479,VALID,0,VALID,100,VALID,-0.0339617,VALID,20.5925,VALID,23,VALID,0,
2009-05-09, 00:12:00,VALID,916.473,VALID,0,VALID,99.9977,VALID,-0.0339617,VALID,20.6087,VALID,22,VALID,0,
2009-05-09, 00:13:00,VALID,916.439,VALID,0,VALID,99.9519,VALID,-0.0339617,VALID,20.5925,VALID,21,VALID,0,
2009-05-09, 00:14:00,VALID,916.433,VALID,0,VALID,99.8871,VALID,-0.0679233,VALID,20.58,VALID,19,VALID,0.0463299,
2009-05-09, 00:15:00,VALID,916.433,VALID,0,VALID,99.9771,VALID,-0.0509425,VALID,20.5865,VALID,17,VALID,0.0651634,
2009-05-09, 00:16:00,VALID,916.419,VALID,0,VALID,99.9125,VALID,-0.0849042,VALID,20.5962,VALID,7,VALID,0.21005,
2009-05-09, 00:17:00,VALID,916.424,VALID,0,VALID,99.8629,VALID,-0.0509425,VALID,20.5962,VALID,11,VALID,0.0578497,
2009-05-09, 00:18:00,VALID,916.414,VALID,0,VALID,99.8515,VALID,-0.0339617,VALID,20.5832,VALID,8,VALID,0.113542,
2009-05-09, 00:19:00,VALID,916.421,VALID,0,VALID,99.8731,VALID,-0.0509425,VALID,20.5768,VALID,10,VALID,0.133903,
2009-05-09, 00:20:00,VALID,916.416,VALID,0,VALID,99.9227,VALID,-0.0339617,VALID,20.56,VALID,10,VALID,0.428052,
2009-05-09, 00:21:00,VALID,916.411,VALID,0,VALID,99.9919,VALID,-0.0849042,VALID,20.544,VALID,6,VALID,0.0976563,
2009-05-09, 00:22:00,VALID,916.42,VALID,0,VALID,100,VALID,-0.0679233,VALID,20.5381,VALID,8,VALID,0.0227108,
2009-05-09, 00:23:00,VALID,916.414,VALID,0,VALID,100,VALID,-0.0849042,VALID,20.5089,VALID,12,VALID,0.0355114,
2009-05-09, 00:24:00,VALID,916.418,VALID,0,VALID,100,VALID,0.0339617,VALID,20.4948,VALID,10,VALID,0.14335,
2009-05-09, 00:25:00,VALID,916.414,VALID,0,VALID,100,VALID,0.0169808,VALID,20.4781,VALID,12,VALID,0.703311,
2009-05-09, 00:26:00,VALID,916.403,VALID,0,VALID,100,VALID,0.0339617,VALID,20.4943,VALID,10,VALID,0.901486,
2009-05-09, 00:27:00,VALID,916.403,VALID,0,VALID,100,VALID,0,VALID,20.4943,VALID,21,VALID,0.322656,
2009-05-09, 00:28:00,VALID,916.403,VALID,0,VALID,100,VALID,-0.0169808,VALID,20.4943,VALID,23,VALID,0.401708,
2009-05-09, 00:29:00,VALID,916.412,VALID,0,VALID,100,VALID,0,VALID,20.4754,VALID,11,VALID,0.702714,
2009-05-09, 00:30:00,VALID,916.429,VALID,0,VALID,100,VALID,0,VALID,20.4654,VALID,7,VALID,0.0675347,
2009-05-09, 00:31:00,VALID,916.443,VALID,0,VALID,100,VALID,0.0169808,VALID,20.4551,VALID,16,VALID,0.197621,
2009-05-09, 00:32:00,VALID,916.463,VALID,0,VALID,100,VALID,0,VALID,20.4327,VALID,21,VALID,0.0554315,
2009-05-09, 00:33:00,VALID,916.488,VALID,0,VALID,100,VALID,0.0169808,VALID,20.4262,VALID,14,VALID,0.139881,
2009-05-09, 00:34:00,VALID,916.517,VALID,0,VALID,100,VALID,0.0169808,VALID,20.4391,VALID,13,VALID,0,
2009-05-09, 00:35:00,VALID,916.541,VALID,0,VALID,100,VALID,0.0169808,VALID,20.4586,VALID,345,VALID,0.133594,
2009-05-09, 00:36:00,VALID,916.535,VALID,0,VALID,100,VALID,0.0339617,VALID,20.4686,VALID,340,VALID,0.00436047,
2009-05-09, 00:37:00,VALID,916.519,VALID,0,VALID,100,VALID,0.0339617,VALID,20.4641,VALID,334,VALID,0,
2009-05-09, 00:38:00,VALID,916.511,VALID,0,VALID,100,VALID,0.0169808,VALID,20.4716,VALID,354,VALID,0.00114329,
2009-05-09, 00:39:00,VALID,916.479,VALID,0,VALID,100,VALID,0.0169808,VALID,20.4519,VALID,18,VALID,0,
2009-05-09, 00:40:00,VALID,916.461,VALID,0,VALID,100,VALID,0.0169808,VALID,20.4554,VALID,3,VALID,0,
2009-05-09, 00:41:00,VALID,916.445,VALID,0,VALID,100,VALID,0,VALID,20.4651,VALID,3,VALID,0,
2009-05-09, 00:42:00,VALID,916.428,VALID,0,VALID,100,VALID,0.0339617,VALID,20.4813,VALID,343,VALID,0,
2009-05-09, 00:43:00,VALID,916.437,VALID,0,VALID,100,VALID,0.0509425,VALID,20.4908,VALID,343,VALID,0,
2009-05-09, 00:44:00,VALID,916.435,VALID,0,VALID,100,VALID,0,VALID,20.5073,VALID,343,VALID,0,
2009-05-09, 00:45:00,VALID,916.44,VALID,0,VALID,100,VALID,0,VALID,20.5365,VALID,343,VALID,0,
2009-05-09, 00:46:00,VALID,916.434,VALID,0,VALID,100,VALID,0.0339617,VALID,20.5625,VALID,343,VALID,0,
2009-05-09, 00:47:00,VALID,916.448,VALID,0,VALID,100,VALID,0.0169808,VALID,20.5822,VALID,343,VALID,0,
2009-05-09, 00:48:00,VALID,916.43,VALID,0,VALID,100,VALID,0.0339617,VALID,20.6106,VALID,347,VALID,0,
2009-05-09, 00:49:00,VALID,916.429,VALID,0,VALID,100,VALID,0.0339617,VALID,20.6274,VALID,2,VALID,0,
2009-05-09, 00:50:00,VALID,916.427,VALID,0,VALID,100,VALID,0.0169808,VALID,20.6206,VALID,2,VALID,0,
2009-05-09, 00:51:00,VALID,916.4,VALID,0,VALID,100,VALID,0,VALID,20.6276,VALID,5,VALID,0,
2009-05-09, 00:52:00,VALID,916.37,VALID,0,VALID,100,VALID,-0.0169808,VALID,20.6144,VALID,6,VALID,0,
2009-05-09, 00:53:00,VALID,916.345,VALID,0,VALID,100,VALID,0,VALID,20.5949,VALID,6,VALID,0,
2009-05-09, 00:54:00,VALID,916.325,VALID,0,VALID,100,VALID,-0.0679233,VALID,20.6019,VALID,6,VALID,0,
2009-05-09, 00:55:00,VALID,916.306,VALID,0,VALID,100,VALID,-0.0169808,VALID,20.5919,VALID,6,VALID,0,
2009-05-09, 00:56:00,VALID,916.283,VALID,0,VALID,100,VALID,-0.0339617,VALID,20.569,VALID,6,VALID,0,
2009-05-09, 00:57:00,VALID,916.254,VALID,0,VALID,100,VALID,-0.0509425,VALID,20.563,VALID,6,VALID,0,
2009-05-09, 00:58:00,VALID,916.234,VALID,0,VALID,100,VALID,-0.0679233,VALID,20.5603,VALID,6,VALID,0,
2009-05-09, 00:59:00,VALID,916.216,VALID,0,VALID,100,VALID,-0.0849042,VALID,20.5438,VALID,6,VALID,0,
2009-05-09, 01:00:00,VALID,916.208,VALID,0,VALID,100,VALID,-0.0679233,VALID,20.5213,VALID,6,VALID,0,
2009-05-09, 01:01:00,VALID,916.2,VALID,0,VALID,100,VALID,-0.0509425,VALID,20.5218,VALID,6,VALID,0,
2009-05-09, 01:02:00,VALID,916.181,VALID,0,VALID,100,VALID,-0.0849042,VALID,20.5083,VALID,6,VALID,0,
2009-05-09, 01:03:00,VALID,916.166,VALID,0,VALID,100,VALID,-0.0509425,VALID,20.5148,VALID,6,VALID,0,
2009-05-09, 01:04:00,VALID,916.137,VALID,0,VALID,100,VALID,-0.0849042,VALID,20.5375,VALID,6,VALID,0,
2009-05-09, 01:05:00,VALID,916.133,VALID,0,VALID,100,VALID,0,VALID,20.5568,VALID,6,VALID,0,
2009-05-09, 01:06:00,VALID,916.129,VALID,0,VALID,100,VALID,-0.0169808,VALID,20.543,VALID,6,VALID,0,
2009-05-09, 01:07:00,VALID,916.12,VALID,0,VALID,100,VALID,-0.0169808,VALID,20.5405,VALID,6,VALID,0,
2009-05-09, 01:08:00,VALID,916.101,VALID,0,VALID,100,VALID,-0.0339617,VALID,20.5375,VALID,6,VALID,0,
2009-05-09, 01:09:00,VALID,916.104,VALID,0,VALID,100,VALID,-0.0169808,VALID,20.5105,VALID,6,VALID,0,
2009-05-09, 01:10:00,VALID,916.097,VALID,0,VALID,100,VALID,-0.0339617,VALID,20.5116,VALID,6,VALID,0,
2009-05-09, 01:11:00,VALID,916.09,VALID,0,VALID,100,VALID,-0.0169808,VALID,20.5205,VALID,6,VALID,0,
2009-05-09, 01:12:00,VALID,916.075,VALID,0,VALID,100,VALID,-0.0169808,VALID,20.543,VALID,6,VALID,0,
2009-05-09, 01:13:00,VALID,916.069,VALID,0,VALID,100,VALID,-0.0169808,VALID,20.5495,VALID,6,VALID,0,
2009-05-09, 01:14:00,VALID,916.049,VALID,0,VALID,100,VALID,-0.0339617,VALID,20.5668,VALID,6,VALID,0,
2009-05-09, 01:15:00,VALID,916.033,VALID,0,VALID,100,VALID,-0.0339617,VALID,20.5868,VALID,6,VALID,0,
2009-05-09, 01:16:00,VALID,916.021,VALID,0,VALID,100,VALID,-0.0509425,VALID,20.5595,VALID,6,VALID,0,
2009-05-09, 01:17:00,VALID,916.003,VALID,0,VALID,100,VALID,-0.0679233,VALID,20.5533,VALID,6,VALID,0,
2009-05-09, 01:18:00,VALID,915.976,VALID,0,VALID,100,VALID,-0.0339617,VALID,20.557,VALID,34,VALID,0,
2009-05-09, 01:19:00,VALID,915.941,VALID,0,VALID,100,VALID,-0.0339617,VALID,20.5627,VALID,51,VALID,0,
2009-05-09, 01:20:00,VALID,915.896,VALID,0,VALID,100,VALID,-0.0679233,VALID,20.5795,VALID,53,VALID,0,
2009-05-09, 01:21:00,VALID,915.887,VALID,0,VALID,100,VALID,-0.0169808,VALID,20.589,VALID,57,VALID,0,
2009-05-09, 01:22:00,VALID,915.871,VALID,0,VALID,100,VALID,-0.0849042,VALID,20.606,VALID,57,VALID,0,
2009-05-09, 01:23:00,VALID,915.88,VALID,0,VALID,100,VALID,0,VALID,20.6047,VALID,57,VALID,0,
2009-05-09, 01:24:00,VALID,915.871,VALID,0,VALID,100,VALID,-0.0339617,VALID,20.6179,VALID,57,VALID,0,
2009-05-09, 01:25:00,VALID,915.867,VALID,0,VALID,100,VALID,-0.0339617,VALID,20.6436,VALID,57,VALID,0,
2009-05-09, 01:26:00,VALID,915.86,VALID,0,VALID,100,VALID,-0.0339617,VALID,20.6828,VALID,57,VALID,0,
2009-05-09, 01:27:00,VALID,915.835,VALID,0,VALID,100,VALID,-0.0169808,VALID,20.7347,VALID,57,VALID,0,
2009-05-09, 01:28:00,VALID,915.808,VALID,0,VALID,100,VALID,-0.0169808,VALID,20.7477,VALID,47,VALID,0,
2009-05-09, 01:29:00,VALID,915.795,VALID,0,VALID,100,VALID,-0.0169808,VALID,20.7577,VALID,37,VALID,0,
2009-05-09, 01:30:00,VALID,915.782,VALID,0,VALID,100,VALID,-0.0339617,VALID,20.7869,VALID,36,VALID,0,
2009-05-09, 01:31:00,VALID,915.756,VALID,0,VALID,100,VALID,-0.0339617,VALID,20.7897,VALID,36,VALID,0,
2009-05-09, 01:32:00,VALID,915.731,VALID,0,VALID,100,VALID,0,VALID,20.7767,VALID,36,VALID,0,
2009-05-09, 01:33:00,VALID,915.701,VALID,0,VALID,100,VALID,-0.0339617,VALID,20.7512,VALID,36,VALID,0,
2009-05-09, 01:34:00,VALID,915.676,VALID,0,VALID,100,VALID,-0.0339617,VALID,20.7218,VALID,36,VALID,0,
2009-05-09, 01:35:00,VALID,915.648,VALID,0,VALID,100,VALID,-0.0679233,VALID,20.7063,VALID,36,VALID,0,
2009-05-09, 01:36:00,VALID,915.624,VALID,0,VALID,100,VALID,-0.0509425,VALID,20.7188,VALID,36,VALID,0,
2009-05-09, 01:37:00,VALID,915.594,VALID,0,VALID,100,VALID,-0.0509425,VALID,20.7188,VALID,36,VALID,0,
2009-05-09, 01:38:00,VALID,915.563,VALID,0,VALID,100,VALID,-0.0169808,VALID,20.7088,VALID,36,VALID,0,
2009-05-09, 01:39:00,VALID,915.542,VALID,0,VALID,100,VALID,-0.0339617,VALID,20.6701,VALID,36,VALID,0,
2009-05-09, 01:40:00,VALID,915.503,VALID,0,VALID,100,VALID,-0.0679233,VALID,20.6671,VALID,36,VALID,0,
2009-05-09, 01:41:00,VALID,915.486,VALID,0,VALID,100,VALID,-0.0339617,VALID,20.6636,VALID,36,VALID,0,
2009-05-09, 01:42:00,VALID,915.469,VALID,0,VALID,100,VALID,-0.0679233,VALID,20.6604,VALID,33,VALID,0,
2009-05-09, 01:43:00,VALID,915.447,VALID,0,VALID,100,VALID,-0.0169808,VALID,20.6379,VALID,26,VALID,0,
2009-05-09, 01:44:00,VALID,915.427,VALID,0,VALID,100,VALID,-0.0509425,VALID,20.6144,VALID,8,VALID,0,
2009-05-09, 01:45:00,VALID,915.406,VALID,0,VALID,100,VALID,-0.0339617,VALID,20.6054,VALID,8,VALID,0,
2009-05-09, 01:46:00,VALID,915.357,VALID,0,VALID,100,VALID,-0.0679233,VALID,20.54,VALID,8,VALID,0,
2009-05-09, 01:47:00,VALID,915.327,VALID,0,VALID,100,VALID,-0.0849042,VALID,20.5662,VALID,45,VALID,0,
2009-05-09, 01:48:00,VALID,915.294,VALID,0,VALID,100,VALID,-0.0339617,VALID,20.589,VALID,54,VALID,0.0514171,
2009-05-09, 01:49:00,VALID,915.277,VALID,0,VALID,100,VALID,-0.0509425,VALID,20.6084,VALID,56,VALID,0,
2009-05-09, 01:50:00,VALID,915.256,VALID,0,VALID,100,VALID,-0.0509425,VALID,20.6184,VALID,56,VALID,0,
2009-05-09, 01:51:00,VALID,915.239,VALID,0,VALID,100,VALID,-0.0849042,VALID,20.6087,VALID,56,VALID,0,
2009-05-09, 01:52:00,VALID,915.227,VALID,0,VALID,100,VALID,-0.101885,VALID,20.5892,VALID,56,VALID,0,
2009-05-09, 01:53:00,VALID,915.194,VALID,0,VALID,100,VALID,-0.101885,VALID,20.586,VALID,56,VALID,0,
2009-05-09, 01:54:00,VALID,915.175,VALID,0,VALID,100,VALID,-0.0849042,VALID,20.577,VALID,56,VALID,0,
2009-05-09, 01:55:00,VALID,915.147,VALID,0,VALID,100,VALID,-0.0169808,VALID,20.5638,VALID,50,VALID,0,
2009-05-09, 01:56:00,VALID,915.12,VALID,0,VALID,100,VALID,-0.101885,VALID,20.561,VALID,46,VALID,0,
2009-05-09, 01:57:00,VALID,915.083,VALID,0,VALID,100,VALID,-0.0509425,VALID,20.5478,VALID,46,VALID,0,
2009-05-09, 01:58:00,VALID,915.045,VALID,0,VALID,100,VALID,-0.0339617,VALID,20.5446,VALID,46,VALID,0,
2009-05-09, 01:59:00,VALID,915.004,VALID,0,VALID,100,VALID,-0.0339617,VALID,20.5375,VALID,46,VALID,0,
2009-05-09, 02:00:00,VALID,914.985,VALID,0,VALID,100,VALID,-0.0339617,VALID,20.5146,VALID,53,VALID,0,
2009-05-09, 02:01:00,VALID,914.971,VALID,0,VALID,100,VALID,-0.0169808,VALID,20.4856,VALID,57,VALID,0,
2009-05-09, 02:02:00,VALID,914.96,VALID,0,VALID,100,VALID,-0.0169808,VALID,20.4986,VALID,48,VALID,0,
2009-05-09, 02:03:00,VALID,914.953,VALID,0,VALID,100,VALID,-0.0509425,VALID,20.4959,VALID,46,VALID,0,
2009-05-09, 02:04:00,VALID,914.954,VALID,0,VALID,100,VALID,-0.0339617,VALID,20.4829,VALID,46,VALID,0,
2009-05-09, 02:05:00,VALID,914.93,VALID,0,VALID,100,VALID,-0.0509425,VALID,20.4699,VALID,46,VALID,0,
2009-05-09, 02:06:00,VALID,914.92,VALID,0,VALID,100,VALID,-0.0679233,VALID,20.4532,VALID,46,VALID,0,
2009-05-09, 02:07:00,VALID,914.892,VALID,0,VALID,100,VALID,-0.0679233,VALID,20.4434,VALID,46,VALID,0,
2009-05-09, 02:08:00,VALID,914.87,VALID,0,VALID,100,VALID,-0.0169808,VALID,20.4472,VALID,46,VALID,0,
2009-05-09, 02:09:00,VALID,914.826,VALID,0,VALID,100,VALID,-0.0169808,VALID,20.424,VALID,46,VALID,0,
2009-05-09, 02:10:00,VALID,914.785,VALID,0,VALID,100,VALID,0,VALID,20.3953,VALID,46,VALID,0,
2009-05-09, 02:11:00,VALID,914.753,VALID,0,VALID,100,VALID,-0.0339617,VALID,20.3531,VALID,72,VALID,0,
2009-05-09, 02:12:00,VALID,914.713,VALID,0,VALID,100,VALID,-0.0169808,VALID,20.3431,VALID,77,VALID,0,
2009-05-09, 02:13:00,VALID,914.685,VALID,0,VALID,100,VALID,-0.0339617,VALID,20.3398,VALID,78,VALID,0,
2009-05-09, 02:14:00,VALID,914.665,VALID,0,VALID,100,VALID,-0.0169808,VALID,20.2974,VALID,79,VALID,0,
2009-05-09, 02:15:00,VALID,914.641,VALID,0,VALID,100,VALID,-0.0339617,VALID,20.2782,VALID,80,VALID,0,
2009-05-09, 02:16:00,VALID,914.628,VALID,0,VALID,100,VALID,-0.0169808,VALID,20.2457,VALID,80,VALID,0,
2009-05-09, 02:17:00,VALID,914.605,VALID,0,VALID,100,VALID,-0.0169808,VALID,20.2325,VALID,80,VALID,0,
2009-05-09, 02:18:00,VALID,914.6,VALID,0,VALID,100,VALID,-0.0509425,VALID,20.22,VALID,80,VALID,0,
2009-05-09, 02:19:00,VALID,914.597,VALID,0,VALID,100,VALID,-0.0169808,VALID,20.1998,VALID,80,VALID,0,
2009-05-09, 02:20:00,VALID,914.608,VALID,0,VALID,100,VALID,0,VALID,20.2103,VALID,80,VALID,0,
2009-05-09, 02:21:00,VALID,914.622,VALID,0,VALID,100,VALID,-0.0339617,VALID,20.2135,VALID,80,VALID,0,
2009-05-09, 02:22:00,VALID,914.641,VALID,0,VALID,100,VALID,0,VALID,20.1968,VALID,80,VALID,0,
2009-05-09, 02:23:00,VALID,914.648,VALID,0,VALID,100,VALID,-0.0509425,VALID,20.2003,VALID,80,VALID,0,
2009-05-09, 02:24:00,VALID,914.658,VALID,0,VALID,100,VALID,0,VALID,20.2003,VALID,80,VALID,0,
2009-05-09, 02:25:00,VALID,914.655,VALID,0,VALID,100,VALID,-0.0339617,VALID,20.2035,VALID,80,VALID,0,
2009-05-09, 02:26:00,VALID,914.643,VALID,0,VALID,100,VALID,-0.0339617,VALID,20.2068,VALID,18,VALID,0,
2009-05-09, 02:27:00,VALID,914.631,VALID,0,VALID,100,VALID,-0.0169808,VALID,20.2128,VALID,3,VALID,0,
2009-05-09, 02:28:00,VALID,914.632,VALID,0,VALID,100,VALID,-0.0169808,VALID,20.226,VALID,3,VALID,0,
2009-05-09, 02:29:00,VALID,914.638,VALID,0,VALID,100,VALID,-0.0339617,VALID,20.235,VALID,3,VALID,0,
2009-05-09, 02:30:00,VALID,914.631,VALID,0,VALID,100,VALID,-0.0169808,VALID,20.2849,VALID,3,VALID,0,
2009-05-09, 02:31:00,VALID,914.642,VALID,0,VALID,100,VALID,0,VALID,20.3001,VALID,3,VALID,0,
2009-05-09, 02:32:00,VALID,914.664,VALID,0,VALID,100,VALID,-0.0339617,VALID,20.3298,VALID,3,VALID,0,
2009-05-09, 02:33:00,VALID,914.666,VALID,0,VALID,100,VALID,0,VALID,20.3296,VALID,3,VALID,0,
2009-05-09, 02:34:00,VALID,914.678,VALID,0,VALID,100,VALID,-0.0509425,VALID,20.3531,VALID,3,VALID,0,
2009-05-09, 02:35:00,VALID,914.698,VALID,0,VALID,100,VALID,-0.0339617,VALID,20.3526,VALID,3,VALID,0,
2009-05-09, 02:36:00,VALID,914.74,VALID,0,VALID,100,VALID,0,VALID,20.3585,VALID,3,VALID,0,
2009-05-09, 02:37:00,VALID,914.771,VALID,0,VALID,100,VALID,0.0169808,VALID,20.382,VALID,3,VALID,0,
2009-05-09, 02:38:00,VALID,914.786,VALID,0,VALID,100,VALID,-0.0169808,VALID,20.3875,VALID,3,VALID,0,
2009-05-09, 02:39:00,VALID,914.803,VALID,0,VALID,100,VALID,-0.0509425,VALID,20.408,VALID,3,VALID,0,
2009-05-09, 02:40:00,VALID,914.815,VALID,0,VALID,100,VALID,0,VALID,20.411,VALID,3,VALID,0,
2009-05-09, 02:41:00,VALID,914.83,VALID,0,VALID,100,VALID,-0.0169808,VALID,20.3718,VALID,3,VALID,0,
2009-05-09, 02:42:00,VALID,914.85,VALID,0,VALID,100,VALID,-0.0339617,VALID,20.3466,VALID,3,VALID,0,
2009-05-09, 02:43:00,VALID,914.844,VALID,0,VALID,100,VALID,-0.0339617,VALID,20.3231,VALID,3,VALID,0,
2009-05-09, 02:44:00,VALID,914.847,VALID,0,VALID,100,VALID,-0.0509425,VALID,20.3433,VALID,3,VALID,0,
2009-05-09, 02:45:00,VALID,914.829,VALID,0,VALID,100,VALID,-0.0509425,VALID,20.3466,VALID,3,VALID,0,
2009-05-09, 02:46:00,VALID,914.796,VALID,0,VALID,100,VALID,-0.0339617,VALID,20.3266,VALID,12,VALID,0,
2009-05-09, 02:47:00,VALID,914.775,VALID,0,VALID,100,VALID,-0.0509425,VALID,20.3039,VALID,12,VALID,0,
2009-05-09, 02:48:00,VALID,914.787,VALID,0,VALID,100,VALID,0,VALID,20.3104,VALID,12,VALID,0,
2009-05-09, 02:49:00,VALID,914.79,VALID,0,VALID,100,VALID,-0.0169808,VALID,20.3074,VALID,12,VALID,0,
2009-05-09, 02:50:00,VALID,914.8,VALID,0,VALID,100,VALID,-0.0169808,VALID,20.2812,VALID,12,VALID,0,
2009-05-09, 02:51:00,VALID,914.794,VALID,0,VALID,100,VALID,0,VALID,20.2652,VALID,12,VALID,0,
2009-05-09, 02:52:00,VALID,914.8,VALID,0,VALID,100,VALID,-0.0339617,VALID,20.2487,VALID,12,VALID,0,
2009-05-09, 02:53:00,VALID,914.793,VALID,0,VALID,100,VALID,-0.0169808,VALID,20.2122,VALID,12,VALID,0,
2009-05-09, 02:54:00,VALID,914.815,VALID,0,VALID,100,VALID,-0.0169808,VALID,20.1803,VALID,13,VALID,0,
2009-05-09, 02:55:00,VALID,914.843,VALID,0,VALID,100,VALID,-0.0339617,VALID,20.1641,VALID,14,VALID,0,
2009-05-09, 02:56:00,VALID,914.86,VALID,0,VALID,100,VALID,-0.0339617,VALID,20.1576,VALID,15,VALID,0,
2009-05-09, 02:57:00,VALID,914.895,VALID,0,VALID,100,VALID,-0.0339617,VALID,20.1381,VALID,20,VALID,0,
2009-05-09, 02:58:00,VALID,914.909,VALID,0,VALID,100,VALID,-0.0509425,VALID,20.1186,VALID,27,VALID,0,
2009-05-09, 02:59:00,VALID,914.935,VALID,0,VALID,100,VALID,0,VALID,20.1219,VALID,38,VALID,0,
2009-05-09, 03:00:01,VALID,914.955,VALID,0,VALID,100,VALID,0,VALID,20.1346,VALID,38,VALID,0.0012718,
2009-05-09, 03:01:00,VALID,914.969,VALID,0,VALID,100,VALID,-0.0169808,VALID,20.1508,VALID,38,VALID,0,
2009-05-09, 03:02:00,VALID,914.962,VALID,0,VALID,100,VALID,-0.0339617,VALID,20.186,VALID,38,VALID,0,
2009-05-09, 03:03:00,VALID,914.975,VALID,0,VALID,100,VALID,-0.0339617,VALID,20.233,VALID,38,VALID,0,
2009-05-09, 03:04:00,VALID,914.985,VALID,0,VALID,100,VALID,-0.0169808,VALID,20.246,VALID,38,VALID,0,
2009-05-09, 03:05:00,VALID,915.005,VALID,0,VALID,100,VALID,-0.0339617,VALID,20.2492,VALID,38,VALID,0,
2009-05-09, 03:06:01,VALID,915.023,VALID,0,VALID,100,VALID,-0.0169808,VALID,20.2327,VALID,38,VALID,0,
2009-05-09, 03:07:01,VALID,915.015,VALID,0,VALID,100,VALID,-0.0169808,VALID,20.2122,VALID,85,VALID,0,
2009-05-09, 03:08:00,VALID,915.006,VALID,0,VALID,100,VALID,-0.0169808,VALID,20.223,VALID,143,VALID,0,
2009-05-09, 03:09:00,VALID,915.005,VALID,0,VALID,100,VALID,-0.0339617,VALID,20.2133,VALID,166,VALID,0,
2009-05-09, 03:10:00,VALID,915.008,VALID,0,VALID,100,VALID,-0.0849042,VALID,20.2033,VALID,164,VALID,0,
2009-05-09, 03:11:00,VALID,915.005,VALID,0,VALID,100,VALID,-0.0339617,VALID,20.2033,VALID,163,VALID,0,
2009-05-09, 03:12:01,VALID,914.988,VALID,0,VALID,100,VALID,-0.0169808,VALID,20.1868,VALID,158,VALID,0,
2009-05-09, 03:13:00,VALID,914.971,VALID,0,VALID,100,VALID,-0.0509425,VALID,20.1508,VALID,155,VALID,0,
2009-05-09, 03:14:01,VALID,914.951,VALID,0,VALID,100,VALID,-0.0169808,VALID,20.1254,VALID,155,VALID,0,
2009-05-09, 03:15:01,VALID,914.935,VALID,0,VALID,100,VALID,0,VALID,20.0919,VALID,155,VALID,0,
2009-05-09, 03:16:00,VALID,914.912,VALID,0,VALID,100,VALID,-0.0169808,VALID,20.0889,VALID,155,VALID,0,
2009-05-09, 03:17:01,VALID,914.884,VALID,0,VALID,100,VALID,0,VALID,20.0827,VALID,154,VALID,0,
2009-05-09, 03:18:01,VALID,914.871,VALID,0,VALID,100,VALID,-0.0339617,VALID,20.0635,VALID,153,VALID,0,
2009-05-09, 03:19:01,VALID,914.859,VALID,0,VALID,100,VALID,-0.0509425,VALID,20.0473,VALID,153,VALID,0,
2009-05-09, 03:20:00,VALID,914.853,VALID,0,VALID,100,VALID,-0.0339617,VALID,20.0333,VALID,148,VALID,0,
2009-05-09, 03:21:01,VALID,914.864,VALID,0,VALID,100,VALID,0,VALID,20.076,VALID,138,VALID,0,
2009-05-09, 03:22:00,VALID,914.889,VALID,0,VALID,100,VALID,-0.0169808,VALID,20.0922,VALID,138,VALID,0,
2009-05-09, 03:23:00,VALID,914.896,VALID,0,VALID,100,VALID,0,VALID,20.0952,VALID,131,VALID,0,
2009-05-09, 03:24:00,VALID,914.881,VALID,0,VALID,100,VALID,-0.0169808,VALID,20.1246,VALID,109,VALID,0,
2009-05-09, 03:25:00,VALID,914.889,VALID,0,VALID,100,VALID,0,VALID,20.1409,VALID,106,VALID,0,
2009-05-09, 03:26:00,VALID,914.857,VALID,0,VALID,100,VALID,0,VALID,20.1636,VALID,106,VALID,0,
2009-05-09, 03:27:01,VALID,914.853,VALID,0,VALID,100,VALID,0,VALID,20.1925,VALID,106,VALID,0,
2009-05-09, 03:28:00,VALID,914.852,VALID,0,VALID,100,VALID,0,VALID,20.2187,VALID,106,VALID,0,
2009-05-09, 03:29:00,VALID,914.855,VALID,0,VALID,100,VALID,0,VALID,20.2355,VALID,106,VALID,0,
2009-05-09, 03:30:01,VALID,914.868,VALID,0,VALID,100,VALID,-0.0339617,VALID,20.2652,VALID,106,VALID,0,
2009-05-09, 03:31:01,VALID,914.859,VALID,0,VALID,100,VALID,-0.0339617,VALID,20.2744,VALID,106,VALID,0,
2009-05-09, 03:32:01,VALID,914.865,VALID,0,VALID,100,VALID,-0.0169808,VALID,20.2674,VALID,111,VALID,0,
2009-05-09, 03:33:01,VALID,914.863,VALID,0,VALID,100,VALID,0,VALID,20.2644,VALID,155,VALID,0,
2009-05-09, 03:34:00,VALID,914.83,VALID,0,VALID,100,VALID,-0.0169808,VALID,20.2482,VALID,173,VALID,0,
2009-05-09, 03:35:00,VALID,914.779,VALID,0,VALID,100,VALID,-0.0509425,VALID,20.2609,VALID,87,VALID,0.0929878,
2009-05-09, 03:36:00,VALID,914.735,VALID,0,VALID,100,VALID,-0.0339617,VALID,20.3358,VALID,70,VALID,0.519345,
2009-05-09, 03:37:00,VALID,914.717,VALID,0,VALID,100,VALID,-0.0849042,VALID,20.4529,VALID,56,VALID,0.266387,
2009-05-09, 03:38:01,VALID,914.71,VALID,0,VALID,100,VALID,-0.0679233,VALID,20.4499,VALID,43,VALID,0,
2009-05-09, 03:39:00,VALID,914.698,VALID,0,VALID,100,VALID,0.0509425,VALID,20.4316,VALID,24,VALID,0,
2009-05-09, 03:40:01,VALID,914.705,VALID,0,VALID,100,VALID,0.0509425,VALID,20.4516,VALID,325,VALID,0.061942,
2009-05-09, 03:41:01,VALID,914.715,VALID,0,VALID,100,VALID,0.0169808,VALID,20.4871,VALID,300,VALID,0,
2009-05-09, 03:42:00,VALID,914.736,VALID,0,VALID,100,VALID,0.0679233,VALID,20.4841,VALID,288,VALID,0,
2009-05-09, 03:43:00,VALID,914.749,VALID,0,VALID,100,VALID,0.0339617,VALID,20.4676,VALID,288,VALID,0,
2009-05-09, 03:44:00,VALID,914.781,VALID,0,VALID,100,VALID,0.0509425,VALID,20.4773,VALID,288,VALID,0,
2009-05-09, 03:45:01,VALID,914.793,VALID,0,VALID,100,VALID,0.101885,VALID,20.5028,VALID,288,VALID,0,
2009-05-09, 03:46:01,VALID,914.809,VALID,0,VALID,100,VALID,0.0509425,VALID,20.5352,VALID,288,VALID,0,
2009-05-09, 03:47:01,VALID,914.82,VALID,0,VALID,100,VALID,0.0679233,VALID,20.5485,VALID,288,VALID,0,
2009-05-09, 03:48:00,VALID,914.818,VALID,0,VALID,100,VALID,0.0679233,VALID,20.542,VALID,288,VALID,0,
2009-05-09, 03:49:00,VALID,914.833,VALID,0,VALID,100,VALID,0.0849042,VALID,20.526,VALID,288,VALID,0,
2009-05-09, 03:50:01,VALID,914.808,VALID,0,VALID,100,VALID,0.0509425,VALID,20.5263,VALID,288,VALID,0,
2009-05-09, 03:51:01,VALID,914.813,VALID,0,VALID,100,VALID,0.0849042,VALID,20.4928,VALID,288,VALID,0,